[[{"header":{"parameterUnit":"m.s-1","parameterCategory":1,"la1":30.2991,"la2":30.254,"lo1":-89.0895,"lo2":-89.0444,"dy":0.0017,"dx":0.0017,"nx":28,"ny":28,"refTime":"2023-10-08T03:00:00:Z","depth":0,"parameterNumber":2,"parameterNumberName":"U-component_of_WINDS"},"data":[0,0,0,0,0,0,0,0,0,0,0,0,0,0,0,0,0,0,0,0,0,0,0,0,0,0,0,0,0,0,0,0,0,0,0,0,0,0,0,0,0,0,0,0,0,0,0,0,0,0,0,0,0,0,0,0,0,0,0.9538,0.9538,0,0.949,0.9489,0.9489,0.9471,0.9471,0.9471,0.9471,0.9422,0.942,0.9419,0,0,0,0,0,0,0,0,0,0,0,0,0,0.9613,0.9612,0.9538,0.9537,0.9537,0.949,0.9489,0.9489,0.9471,0.9471,0.9471,0.9471,0.9422,0.9421,0.9419,0,0,0,0,0,0,0,0,0,0,0,0,0,0.9575,0.9612,0.9538,0.9522,0.952,0.949,0.9489,0.9489,0.9471,0.9471,0.9471,0.9471,0.9423,0.9421,0.9419,0.94,0,0,0.9412,0.9411,0,0,0,0,0,0,0,0,0.9577,0.9572,0.9525,0.9523,0.9521,0.9487,0.9498,0.9459,0.9471,0.949,0.9471,0.9472,0.9443,0.9439,0.943,0.9398,0.9396,0.9412,0.941,0.9409,0.9409,0,0,0,0,0,0,0,0.9579,0.9574,0.9519,0.9525,0.9522,0.9517,0.9512,0.949,0.9466,0.9488,0.9487,0.9481,0.9442,0.9432,0.9428,0.9395,0.9412,0.941,0.9408,0.9408,0.9346,0.9345,0,0,0,0,0,0,0.9585,0.9576,0.9521,0.9518,0.955,0.9516,0.951,0.9497,0.9466,0.9461,0.9481,0.948,0.9436,0.9431,0.9427,0.9403,0.9409,0.9407,0.9406,0.9346,0.9345,0.9345,0,0,0,0,0,0,0.9587,0.958,0.9523,0.9546,0.9539,0.9514,0.95,0.9496,0.9486,0.9461,0.9456,0.9475,0.9436,0.943,0.9407,0.9401,0.9406,0.9404,0.9346,0.9346,0.9345,0.9356,0,0,0,0,0,0,0.9589,0.9581,0.9574,0.9546,0.9538,0.9504,0.95,0.9495,0.9483,0.9481,0.9454,0.945,0.9435,0.941,0.9405,0.9398,0.9403,0.9347,0.9346,0.9345,0.9356,0.9356,0.9356,0,0,0,0,0,0.9592,0.9579,0.9574,0.9567,0.9529,0.9504,0.9499,0.9482,0.9482,0.9475,0.9458,0.9451,0.9403,0.9408,0.9402,0.9394,0.9347,0.9346,0.9346,0.9356,0.9356,0.9356,0,0,0,0,0,0,0.9607,0.9575,0.9569,0.9547,0.9528,0.9501,0.9491,0.9483,0.9464,0.9463,0.9444,0.9438,0.9416,0.9403,0.941,0.9375,0.9374,0.9372,0.9385,0.9384,0.9384,0.9388,0.9401,0,0,0,0,0,0.9608,0.959,0.9563,0.9547,0.9538,0.9516,0.9505,0.9494,0.9473,0.9465,0.9447,0.9427,0.9407,0.9395,0.9376,0.9354,0.9347,0.9346,0.9345,0.9346,0.9344,0.9331,0.933,0.9343,0.9343,0.9343,0,0,0.9609,0.959,0.958,0.9549,0.9533,0.9516,0.9509,0.9491,0.9477,0.9462,0.944,0.9425,0.9402,0.938,0.9369,0.9368,0.9339,0.9345,0.9345,0.9343,0.933,0.9329,0.9328,0.9342,0.9342,0.9342,0,0,0.9603,0.9587,0.9571,0.9555,0.953,0.9516,0.9512,0.9486,0.9476,0.9452,0.944,0.9424,0.9391,0.9374,0.9362,0.9348,0.934,0.9342,0.9342,0.9329,0.9328,0.9327,0.9322,0.9321,0.9341,0.9341,0.9341,0,0.9608,0.9581,0.9564,0.9546,0.9532,0.9517,0.9501,0.9486,0.9457,0.9448,0.9447,0.9404,0.9388,0.9361,0.9357,0.9348,0.9342,0.9346,0.933,0.9329,0.9327,0.9322,0.932,0.9341,0.9341,0.9341,0.9341,0,0.9588,0.9569,0.9559,0.9531,0.9517,0.95,0.9479,0.9467,0.9457,0.9442,0.9418,0.9398,0.9373,0.9366,0.9356,0.9338,0.9338,0.9334,0.9333,0.9327,0.9322,0.932,0.9342,0.9342,0.9342,0.9341,0,0,0.959,0.9553,0.9549,0.9536,0.9508,0.9493,0.9475,0.9451,0.944,0.942,0.9404,0.9376,0.9372,0.9357,0.9346,0.9335,0.9325,0.9331,0.9331,0.9331,0.9302,0.9306,0.9304,0.9319,0.9318,0.9318,0.9304,0,0.958,0.9548,0.9531,0.9506,0.9488,0.9473,0.9457,0.9438,0.9423,0.9406,0.939,0.937,0.9366,0.9357,0.9346,0.9328,0.9319,0.9329,0.9304,0.9303,0.931,0.9301,0.9305,0.9293,0.9302,0.9302,0.9301,0,0.9565,0.9545,0.9517,0.949,0.9482,0.9468,0.9445,0.9429,0.9406,0.9396,0.938,0.9368,0.9348,0.9348,0.9319,0.9327,0.9315,0.9305,0.9304,0.9301,0.9302,0.9298,0.9289,0.9287,0.9298,0.9298,0.9299,0,0.9569,0.9535,0.9514,0.9504,0.9472,0.9462,0.9449,0.9426,0.9413,0.9392,0.9383,0.9361,0.9348,0.933,0.9312,0.9314,0.9285,0.9284,0.9277,0.9277,0.9272,0.9272,0.926,0.9264,0.9264,0.9264,0.9264,0,0.956,0.9544,0.9516,0.9503,0.9484,0.9465,0.9447,0.9432,0.9412,0.9395,0.9381,0.9366,0.9343,0.9325,0.931,0.9289,0.9283,0.9274,0.9271,0.9276,0.9277,0.9268,0.9269,0.9263,0.9264,0.9264,0.9264,0,0.9562,0.9543,0.9519,0.9491,0.9483,0.9471,0.9446,0.9433,0.9417,0.9397,0.9391,0.9367,0.9344,0.9324,0.9295,0.9285,0.9263,0.9259,0.9271,0.9269,0.9262,0.9263,0.9244,0.9241,0.9247,0.9247,0.9247,0,0.9557,0.9545,0.9515,0.9503,0.9489,0.947,0.9457,0.9437,0.9423,0.9396,0.9386,0.9362,0.9342,0.9307,0.9287,0.9264,0.9259,0.9254,0.9255,0.926,0.9258,0.926,0.9258,0.9254,0.9254,0.9254,0.9254,0,0.9551,0.9542,0.9523,0.95,0.9484,0.9465,0.9446,0.9437,0.9413,0.9398,0.9375,0.936,0.9329,0.9306,0.9281,0.9266,0.9256,0.9254,0.925,0.9256,0.9263,0.9259,0.9271,0.9254,0.9254,0.9254,0.9254,0.9254,0.955,0.9537,0.9515,0.9493,0.9477,0.9459,0.9445,0.9427,0.9408,0.9382,0.9371,0.9348,0.9324,0.9289,0.9274,0.9255,0.9254,0.9249,0.9248,0.9247,0.9248,0.9266,0.9251,0.9251,0.9251,0.9251,0.9251,0,0.9543,0.9527,0.9508,0.9481,0.9464,0.9456,0.9434,0.942,0.94,0.9379,0.936,0.9333,0.931,0.9288,0.9264,0.9253,0.9247,0.9247,0.9248,0.9244,0.9251,0.9256,0.9252,0.9252,0.9252,0.9252,0.9252,0.9252,0.9537,0.9516,0.9504,0.9474,0.9458,0.9435,0.9423,0.9406,0.939,0.936,0.9341,0.9327,0.9305,0.9279,0.9257,0.9251,0.9243,0.9244,0.9237,0.9244,0.9244,0.9244,0.9249,0.9242,0.9242,0.9231,0.9231,0.9231]},{"header":{"parameterUnit":"m.s-1","parameterCategory":1,"la1":30.2991,"la2":30.254,"lo1":-89.0895,"lo2":-89.0444,"dy":0.0017,"dx":0.0017,"nx":28,"ny":28,"refTime":"2023-10-08T03:00:00:Z","depth":0,"parameterNumber":3,"parameterNumberName":"V-component_of_WINDS"},"data":[0,0,0,0,0,0,0,0,0,0,0,0,0,0,0,0,0,0,0,0,0,0,0,0,0,0,0,0,0,0,0,0,0,0,0,0,0,0,0,0,0,0,0,0,0,0,0,0,0,0,0,0,0,0,0,0,0,0,2.2693,2.2693,0,2.2649,2.2648,2.2648,2.266,2.2661,2.2661,2.2662,2.2612,2.261,2.2607,0,0,0,0,0,0,0,0,0,0,0,0,0,2.2783,2.2782,2.2693,2.2693,2.2692,2.2649,2.2648,2.2648,2.266,2.2661,2.2662,2.2663,2.2612,2.261,2.2607,0,0,0,0,0,0,0,0,0,0,0,0,0,2.2742,2.2781,2.2693,2.2693,2.2693,2.2649,2.2648,2.2648,2.2659,2.2661,2.2662,2.2663,2.2613,2.261,2.2607,2.2559,0,0,2.2597,2.2595,0,0,0,0,0,0,0,0,2.2744,2.2739,2.2694,2.2693,2.2692,2.2661,2.2662,2.2618,2.2659,2.2672,2.2662,2.2664,2.2627,2.2622,2.2611,2.2557,2.2555,2.2597,2.2595,2.2593,2.2592,0,0,0,0,0,0,0,2.2747,2.2741,2.2676,2.2693,2.2692,2.2693,2.2689,2.2653,2.2642,2.2671,2.2672,2.2666,2.2627,2.2614,2.261,2.2554,2.2597,2.2594,2.2592,2.259,2.2458,2.2456,0,0,0,0,0,0,2.2751,2.2743,2.2677,2.2674,2.2722,2.2691,2.2686,2.267,2.2642,2.264,2.2665,2.2667,2.2619,2.2614,2.2608,2.255,2.2593,2.259,2.2588,2.2459,2.2458,2.2456,0,0,0,0,0,0,2.2753,2.2745,2.2679,2.2709,2.2701,2.2688,2.267,2.2668,2.2656,2.2638,2.2636,2.2655,2.262,2.2613,2.2572,2.2548,2.2589,2.2586,2.2461,2.2459,2.2457,2.2434,0,0,0,0,0,0,2.2756,2.2746,2.2729,2.2708,2.2699,2.2644,2.2668,2.2666,2.2651,2.2653,2.2628,2.2625,2.262,2.2576,2.2568,2.2545,2.2583,2.2463,2.246,2.2457,2.2436,2.2431,2.2426,0,0,0,0,0,2.2759,2.2723,2.2728,2.272,2.2678,2.2643,2.2637,2.2634,2.2649,2.2631,2.262,2.2626,2.2553,2.2572,2.2563,2.2538,2.2465,2.2461,2.2458,2.2439,2.2432,2.2426,0,0,0,0,0,0,2.2739,2.2721,2.2726,2.2683,2.2665,2.2645,2.2622,2.2627,2.2603,2.2606,2.2601,2.2596,2.2553,2.2542,2.2564,2.249,2.251,2.2505,2.2499,2.2493,2.2488,2.249,2.258,0,0,0,0,0,2.2731,2.2706,2.269,2.2653,2.2644,2.2635,2.262,2.2619,2.2599,2.2591,2.2577,2.2556,2.2528,2.251,2.2484,2.2435,2.2429,2.2413,2.2408,2.2404,2.2399,2.2371,2.2364,2.2444,2.2444,2.2444,0,0,2.2711,2.2698,2.2682,2.2649,2.2635,2.2608,2.2628,2.2598,2.2578,2.2586,2.2546,2.2535,2.2512,2.2467,2.2446,2.2456,2.2376,2.24,2.2397,2.2393,2.2367,2.2359,2.2353,2.2442,2.2442,2.2443,0,0,2.2661,2.265,2.2617,2.2603,2.2582,2.2576,2.2569,2.2549,2.2542,2.2503,2.2508,2.2483,2.2435,2.2418,2.2403,2.2347,2.2352,2.2339,2.2311,2.2284,2.2278,2.2272,2.2251,2.2244,2.2334,2.2334,2.2334,0,2.2639,2.26,2.26,2.257,2.2554,2.2563,2.2529,2.2515,2.2486,2.2474,2.2486,2.2427,2.2411,2.2362,2.2348,2.2336,2.2326,2.2341,2.2279,2.2274,2.2268,2.2248,2.224,2.2332,2.2333,2.2333,2.2333,0,2.2573,2.2546,2.2522,2.2495,2.2478,2.2446,2.2439,2.2421,2.2422,2.2414,2.2373,2.2356,2.2325,2.2314,2.2314,2.2264,2.227,2.2281,2.2301,2.2259,2.224,2.2232,2.233,2.2331,2.2331,2.2332,0,0,2.2509,2.2483,2.2474,2.2462,2.244,2.2418,2.2386,2.2358,2.2342,2.2321,2.2293,2.2253,2.2263,2.2246,2.2244,2.2221,2.2176,2.2234,2.2233,2.2222,2.2118,2.211,2.2101,2.218,2.2178,2.2177,2.212,0,2.2456,2.2402,2.2401,2.235,2.2324,2.2332,2.2304,2.2286,2.2278,2.2254,2.2244,2.2216,2.2231,2.2221,2.2198,2.2186,2.2155,2.2191,2.2151,2.215,2.2156,2.2091,2.2082,2.2029,2.2112,2.2111,2.211,0,2.2387,2.2366,2.2314,2.2295,2.2284,2.2259,2.2233,2.221,2.219,2.2186,2.2167,2.2169,2.2134,2.2157,2.2109,2.2133,2.2117,2.2109,2.2107,2.2101,2.2127,2.2083,2.2012,2.2003,2.2099,2.21,2.21,0,2.2344,2.2302,2.2265,2.2255,2.2232,2.2215,2.2204,2.2185,2.2169,2.2146,2.2134,2.2107,2.2092,2.207,2.2063,2.2081,2.2015,2.2037,2.2008,2.2008,2.1993,2.1994,2.1917,2.1985,2.1985,2.1985,2.1985,0,2.2284,2.2251,2.2246,2.2223,2.2186,2.2184,2.2147,2.2138,2.2121,2.2095,2.21,2.2075,2.2069,2.2042,2.2037,2.1997,2.199,2.1985,2.1983,2.1983,2.1984,2.1972,2.1975,2.1983,2.1984,2.1984,2.1984,0,2.2229,2.2224,2.2184,2.2167,2.2162,2.2135,2.2119,2.2096,2.209,2.2056,2.2049,2.2037,2.2006,2.1998,2.1961,2.1957,2.191,2.1913,2.1917,2.1917,2.1888,2.189,2.18,2.1787,2.1865,2.1864,2.1863,0,2.2191,2.2166,2.2146,2.213,2.2119,2.2093,2.2076,2.2074,2.2056,2.2031,2.2011,2.1981,2.1957,2.1907,2.1894,2.1865,2.1866,2.1837,2.1862,2.1863,2.1864,2.1865,2.1862,2.1831,2.183,2.183,2.1829,0,2.2123,2.2122,2.2099,2.2074,2.2055,2.2035,2.2016,2.2002,2.1997,2.1976,2.1946,2.1927,2.189,2.1859,2.183,2.1818,2.1822,2.1822,2.1813,2.1812,2.1816,2.1812,2.1902,2.1823,2.1824,2.1824,2.1825,2.1825,2.2074,2.2052,2.2035,2.2008,2.1994,2.1977,2.1954,2.1945,2.192,2.1891,2.1891,2.1857,2.1836,2.1798,2.1784,2.1757,2.1765,2.1754,2.175,2.1747,2.1744,2.1821,2.1751,2.1752,2.1752,2.1752,2.1752,0,2.2005,2.1995,2.1971,2.1945,2.1924,2.1932,2.1911,2.1893,2.1864,2.1845,2.1822,2.1786,2.1757,2.1742,2.1713,2.1693,2.1694,2.1685,2.1686,2.1683,2.1738,2.1748,2.1685,2.1685,2.1685,2.1685,2.1685,2.1685,2.1966,2.1929,2.1926,2.1882,2.1871,2.184,2.1827,2.181,2.1796,2.1756,2.1733,2.1724,2.1707,2.1676,2.1649,2.1645,2.1633,2.1623,2.162,2.1672,2.1679,2.1685,2.1694,2.1621,2.1621,2.1566,2.1566,2.1566]}]]